Location: Blankensee
(53.5126°N, 14.3055°E)
Time: 18:26:37
(UTC+00:00)

ERS-2 - Pass Details

Date: 08 August 2020
Orbit: 494 x 498 km, 98.6° (Epoch: 19 September)

Event Time Altitude Azimuth Distance (km) Brightness Sun altitude
Rises 01:37:31 0° 134° (SE) 2,575 5.7 -13.5°
Reaches altitude 10° 01:39:47 10° 122° (ESE) 1,697 4.9 -13.2°
Maximum altitude 01:42:54 27° 63° (ENE) 977 4.4 -13.0°
Drops below altitude 10° 01:46:03 10° 4° (N) 1,711 5.7 -12.7°
Sets 01:48:20 0° 352° (N) 2,601 6.5 -12.5°
